Andrews, TX

11:57 PM CST on December 05, 2019 (GMT -0600)
Andrews

Weather History for KE11 - October, 2019

Change the Weather History Date:

Saturday, October 19, 2019

  Actual Average (WUND) Record (WUND)
Temperature  
Mean Temperature 62 °F -  
Max Temperature 75 °F - - (-1)
Min Temperature 49 °F - - (-1)
Degree Days  
Heating Degree Days 3    
Growing Degree Days 12 (Base 50)    
Moisture  
Dew Point 39 °F    
Average Humidity 44    
Maximum Humidity 67    
Minimum Humidity 21    
Precipitation  
Precipitation 0.00 in - - ()
Sea Level Pressure  
Sea Level Pressure 29.90 in    
Wind  
Wind Speed 7 mph ()    
Max Wind Speed 18 mph    
Max Gust Speed 23 mph    
Visibility 10.0 miles    
Events      
Averages and records for this station are not official NWS values.
T = Trace of Precipitation, MM = Missing Value Source: Averaged Metar Reports

Daily Weather History Graph

Daily Weather History Graph

Search for Another Location

Airport or City:

Astronomy

Oct. 19, 2019 Rise Set
Actual Time 7:56 AM CDT 7:13 PM CDT
Civil Twilight 7:31 AM CDT 7:37 PM CDT
Nautical Twilight 7:03 AM CDT 8:06 PM CDT
Astronomical Twilight 6:34 AM CDT 8:34 PM CDT
Moon 11:37 PM CDT (10/19) 1:17 PM CDT (10/19)
Length of Visible Light 12h 05m
Length of Day
11h 16m
Waning Gibbous, 69% of the Moon is Illuminated
Oct 19
Waning Gibbous
Oct 21
Last Quarter
Oct 27
New
Nov 4
First Quarter
Nov 12
Full

Hourly Weather History & Observations

Time (CDT) Temp. Dew Point Humidity Pressure Visibility Wind Dir Wind Speed Gust Speed Precip Events Conditions
12:15 AM 63.5 °F 44.8 °F 51% 29.81 in 10.0 mi West 5.8 mph - N/A   Clear
12:35 AM 64.0 °F 44.6 °F 49% 29.81 in 10.0 mi West 9.2 mph - N/A   Clear
12:55 AM 64.8 °F 44.1 °F 47% 29.82 in 10.0 mi West 8.1 mph - N/A   Clear
1:15 AM 62.6 °F 44.2 °F 51% 29.82 in 10.0 mi West 9.2 mph - N/A   Clear
1:35 AM 62.6 °F 44.1 °F 51% 29.82 in 10.0 mi West 8.1 mph - N/A   Clear
1:55 AM 62.8 °F 44.1 °F 50% 29.82 in 10.0 mi West 9.2 mph - N/A   Clear
2:15 AM 62.1 °F 44.1 °F 52% 29.83 in 10.0 mi WNW 10.4 mph - N/A   Clear
2:35 AM 60.4 °F 44.2 °F 55% 29.83 in 10.0 mi WNW 6.9 mph - N/A   Clear
2:55 AM 59.5 °F 44.6 °F 58% 29.84 in 10.0 mi WNW 8.1 mph - N/A   Clear
3:15 AM 59.0 °F 44.2 °F 58% 29.84 in 10.0 mi WNW 9.2 mph - N/A   Clear
3:35 AM 57.0 °F 44.2 °F 62% 29.84 in 10.0 mi WNW 8.1 mph - N/A   Clear
3:55 AM 55.9 °F 44.6 °F 66% 29.85 in 10.0 mi WNW 6.9 mph - N/A   Clear
4:15 AM 56.5 °F 44.1 °F 63% 29.85 in 10.0 mi WNW 8.1 mph - N/A   Clear
4:35 AM 57.0 °F 43.9 °F 61% 29.84 in 10.0 mi WNW 8.1 mph - N/A   Clear
4:55 AM 54.9 °F 43.9 °F 66% 29.84 in 10.0 mi WNW 9.2 mph - N/A   Clear
5:15 AM 54.5 °F 43.7 °F 67% 29.85 in 10.0 mi WNW 6.9 mph - N/A   Clear
5:35 AM 54.9 °F 43.0 °F 64% 29.86 in 10.0 mi WNW 8.1 mph - N/A   Clear
5:55 AM 59.2 °F 41.0 °F 51% 29.87 in 10.0 mi North 18.4 mph 23.0 mph N/A   Clear
6:15 AM 55.8 °F 41.5 °F 59% 29.88 in 10.0 mi North 11.5 mph - N/A   Clear
6:35 AM 54.1 °F 41.2 °F 62% 29.89 in 10.0 mi North 10.4 mph - N/A   Clear
6:55 AM 52.3 °F 41.0 °F 65% 29.90 in 10.0 mi North 10.4 mph - N/A   Clear
7:15 AM 50.9 °F 40.1 °F 67% 29.91 in 10.0 mi North 9.2 mph - N/A   Clear
7:35 AM 49.6 °F 39.2 °F 67% 29.92 in 10.0 mi North 9.2 mph - N/A   Clear
7:55 AM 50.0 °F 38.5 °F 65% 29.93 in 10.0 mi NNW 9.2 mph - N/A   Clear
8:15 AM 50.0 °F 38.3 °F 64% 29.93 in 10.0 mi NNW 9.2 mph - N/A   Clear
8:35 AM 51.6 °F 38.3 °F 60% 29.94 in 10.0 mi NNW 9.2 mph - N/A   Clear
8:55 AM 53.8 °F 38.5 °F 56% 29.95 in 10.0 mi North 8.1 mph - N/A   Clear
9:15 AM 56.8 °F 38.1 °F 50% 29.96 in 10.0 mi North 12.7 mph - N/A   Clear
9:55 AM 60.4 °F 37.9 °F 43% 29.98 in 10.0 mi North 15.0 mph - N/A   Clear
10:15 AM 62.1 °F 37.6 °F 40% 29.98 in 10.0 mi North 16.1 mph 21.9 mph N/A   Clear
10:35 AM 63.1 °F 37.8 °F 39% 29.98 in 10.0 mi North 15.0 mph - N/A   Clear
10:55 AM 64.8 °F 37.8 °F 37% 29.98 in 10.0 mi North 16.1 mph 21.9 mph N/A   Clear
11:15 AM 65.7 °F 37.8 °F 36% 29.99 in 10.0 mi North 13.8 mph - N/A   Clear
11:35 AM 67.1 °F 38.1 °F 34% 29.98 in 10.0 mi NNE 12.7 mph - N/A   Clear
11:55 AM 68.7 °F 38.5 °F 33% 29.98 in 10.0 mi North 13.8 mph - N/A   Clear
12:15 PM 69.3 °F 38.1 °F 32% 29.98 in 10.0 mi NNE 10.4 mph 16.1 mph N/A   Clear
12:35 PM 70.7 °F 38.3 °F 31% 29.98 in 10.0 mi NNE 11.5 mph - N/A   Clear
12:55 PM 71.2 °F 37.8 °F 29% 29.98 in 10.0 mi NE 8.1 mph - N/A   Clear
1:15 PM 72.3 °F 37.4 °F 28% 29.97 in 10.0 mi NNW 9.2 mph - N/A   Clear
1:35 PM 72.1 °F 37.6 °F 28% 29.96 in 10.0 mi NNW 5.8 mph - N/A   Clear
1:55 PM 72.7 °F 37.0 °F 27% 29.96 in 10.0 mi NE 3.5 mph - N/A   Clear
2:15 PM 73.4 °F 37.4 °F 27% 29.94 in 10.0 mi Calm Calm - N/A   Clear
2:35 PM 73.8 °F 36.3 °F 26% 29.93 in 10.0 mi Calm Calm - N/A   Clear
2:55 PM 74.7 °F 35.1 °F 24% 29.93 in 10.0 mi NNW 5.8 mph - N/A   Clear
3:15 PM 74.1 °F 35.8 °F 25% 29.92 in 10.0 mi West 3.5 mph - N/A   Clear
3:35 PM 75.4 °F 36.7 °F 25% 29.92 in 10.0 mi West 5.8 mph - N/A   Clear
3:55 PM 75.9 °F 36.0 °F 23% 29.91 in 10.0 mi NW 4.6 mph - N/A   Clear
4:15 PM 75.6 °F 32.9 °F 21% 29.91 in 10.0 mi NW 4.6 mph - N/A   Clear
4:35 PM 75.6 °F 33.8 °F 22% 29.91 in 10.0 mi NW 4.6 mph - N/A   Clear
4:55 PM 75.4 °F 32.7 °F 21% 29.91 in 10.0 mi West 4.6 mph - N/A   Clear
5:15 PM 75.4 °F 33.4 °F 22% 29.90 in 10.0 mi Calm Calm - N/A   Clear
5:35 PM 75.0 °F 32.7 °F 21% 29.90 in 10.0 mi North 6.9 mph - N/A   Clear
5:55 PM 74.7 °F 32.4 °F 21% 29.89 in 10.0 mi North 5.8 mph - N/A   Clear
6:15 PM 74.3 °F 32.2 °F 21% 29.89 in 10.0 mi North 3.5 mph - N/A   Clear
6:35 PM 73.4 °F 32.0 °F 22% 29.89 in 10.0 mi Calm Calm - N/A   Clear
6:55 PM 72.5 °F 34.0 °F 24% 29.90 in 10.0 mi Calm Calm - N/A   Clear
7:15 PM 68.7 °F 35.1 °F 29% 29.89 in 10.0 mi Calm Calm - N/A   Clear
7:35 PM 65.1 °F 35.1 °F 33% 29.89 in 10.0 mi Calm Calm - N/A   Clear
7:55 PM 65.5 °F 37.0 °F 35% 29.90 in 10.0 mi Calm Calm - N/A   Clear
8:15 PM 63.3 °F 36.3 °F 37% 29.90 in 10.0 mi Calm Calm - N/A   Clear
8:35 PM 59.9 °F 40.8 °F 49% 29.90 in 10.0 mi Calm Calm - N/A   Clear
8:55 PM 60.1 °F 41.5 °F 50% 29.91 in 10.0 mi Calm Calm - N/A   Clear
9:15 PM 59.9 °F 39.4 °F 47% 29.90 in 10.0 mi Calm Calm - N/A   Clear
9:35 PM 60.6 °F 38.1 °F 43% 29.90 in 10.0 mi Calm Calm - N/A   Clear
9:55 PM 56.3 °F 38.7 °F 52% 29.89 in 10.0 mi Calm Calm - N/A   Clear
10:15 PM 58.6 °F 39.0 °F 48% 29.89 in 10.0 mi Calm Calm - N/A   Clear
10:35 PM 53.8 °F 37.6 °F 54% 29.90 in 10.0 mi Calm Calm - N/A   Clear
10:55 PM 55.0 °F 39.4 °F 56% 29.90 in 10.0 mi SSE 3.5 mph - N/A   Clear
11:15 PM 57.0 °F 36.7 °F 47% 29.90 in 10.0 mi South 4.6 mph - N/A   Clear
11:35 PM 56.7 °F 36.7 °F 47% 29.90 in 10.0 mi South 4.6 mph - N/A   Clear
11:55 PM 56.5 °F 36.3 °F 47% 29.90 in 10.0 mi SSW 3.5 mph - N/A   Clear